Карточка аэропорта UATT

Внимание!
Информация на этой странице в стадии наполнения.
Если вы не увидели какой-то информации, или заметили неточность - пожалуйста сообщите нам!
Спасибо!
Команда RU-STAFF
Название аэропортаАктобе
Название аэропорта (англ.)Aktobe
Превышение738 ft. (224.9 m.)
Координаты50°14.748', 57°12.402'
Высота перехода10000ft
Эшелон переходаFL120, QNH<733:FL130
Коды ответчика3440-3447, 3540-3547
Зона ОрВДАктобе РПИ (UATT)
Данные METARUATT 232030Z 31004MPS CAVOK 09/00 Q1016 NOSIG RMK QFE742/0989
Проноз погоды (TAF)UATT 231701Z 2318/2418 36005MPS 9999 BKN033 TX13/2412Z TN04/2401Z BECMG 2323/2324 04007MPS TEMPO 2400/2406 05014MPS 3100 -SHRA BKN011 BKN015CB TEMPO 2406/2412 04012MPS
NOTAMshow/hide NOTAM
AWOS   TABLE

Информация о ВПП

ВПП Длина ВПП (м.) Покрытие Курс ВПП Частота ILS
133202Бетон135111.7
313202Бетон315111.7

Диспетчерские позиции




Спутниковое изображение